Home   Weather   Mo i Rana   Past weeks

Flag for Norway Past Weather in Mo i Rana, Norway — Yesterday and Last 2 Weeks

Now
55 °F

Passing clouds.


Feels Like: 54 °F
Forecast: 47 / 53 °F
Wind: 6 mph from East

Location: Mo I Rana / Rossvoll

Current Time: Sep 27, 2016 at 9:09:05 PM

Latest Report: Sep 27, 2016 at 8:20 PM


Visibility: N/A

Pressure: 29.74 "Hg

Humidity: 63%

Dew Point: 43 °F

Location of Mo i RanaLocation

Past Weather in Mo i Rana — Graph

°F

Mo i Rana Temperature Yesterday

Maximum temperature yesterday: 59 °F (at 8:50 AM)
Minimum temperature yesterday: 48 °F (at 10:50 PM)
Average temperature yesterday: 54 °F

High & Low Weather Summary for the Past Weeks

 TemperatureHumidityPressure
High66 °F (Sep 13, 3:50 PM)100% (Sep 14, 6:50 PM)30.24 "Hg (Sep 14, 6:50 PM)
Low37 °F (Sep 16, 5:50 AM)40% (Sep 16, 2:50 PM)29.77 "Hg (Sep 27, 7:20 PM)
Average53 °F84%30.10 "Hg
* Reported Sep 12 7:20 PM — Sep 27 7:50 PM, Mo i Rana, Weather by CustomWeather, © 2016

Note: Actual official high and low records may vary slightly from our data, if they occured in-between our weather recording intervals... More about our weather records

Advertising

Mo i Rana Weather History for the Previous 24 Hours

Scroll right to see more
 ConditionsComfort  
Time TempWeatherWind HumidityBarometerVisibility
7:50 PM
Tue, Sep 27
50 °FPassing clouds.2 mph82%29.77 "HgN/A
7:20 PM46 °FPassing clouds.2 mph93%29.77 "HgN/A
6:50 PM46 °FPassing clouds.2 mph93%29.80 "HgN/A
5:50 PM50 °FPassing clouds.1 mph88%29.86 "HgN/A
4:50 PM52 °FPassing clouds.1 mph88%29.89 "HgN/A
4:20 PM54 °FPassing clouds.1 mph77%29.89 "HgN/A
3:50 PM54 °FScattered clouds.3 mph77%29.89 "HgN/A
3:20 PM54 °FScattered clouds.5 mph77%29.92 "HgN/A
2:50 PM52 °FBroken clouds.1 mph82%29.95 "HgN/A
2:20 PM52 °FBroken clouds.2 mph82%29.98 "HgN/A
1:50 PM50 °FScattered clouds.2 mph88%29.98 "HgN/A
1:20 PM48 °FScattered showers. Broken clouds.2 mph87%30.01 "HgN/A
12:50 PM48 °FScattered showers. Broken clouds.2 mph87%30.01 "HgN/A
12:20 PM48 °FScattered showers. Broken clouds.2 mph87%30.01 "HgN/A
11:50 AM48 °FSprinkles. Broken clouds.2 mph87%30.01 "HgN/A
11:20 AM46 °FScattered showers. Broken clouds.6 mph93%30.04 "HgN/A
10:50 AM46 °FBroken clouds.3 mph93%30.04 "HgN/A
10:20 AM48 °FPartly sunny.3 mph94%30.04 "HgN/A
8:50 AM45 °FPassing clouds.3 mph93%30.09 "HgN/A
8:20 AM45 °FSleet. Light fog.1 mph93%30.09 "HgN/A
7:50 AM41 °FLight fog.1 mph100%30.09 "HgN/A
6:50 AM43 °FPassing clouds.5 mph100%30.12 "HgN/A
6:20 AM43 °FPassing clouds.6 mph93%30.15 "HgN/A
5:50 AM43 °FDense fog.2 mph100%30.15 "Hg1 mi
10:50 PM
Mon, Sep 26
48 °FFog.2 mph100%30.18 "HgN/A
10:20 PM50 °FPassing clouds.1 mph94%30.18 "HgN/A
9:50 PM50 °FPassing clouds.2 mph94%30.15 "HgN/A
9:20 PM50 °FPartly cloudy.1 mph94%30.15 "HgN/A
Weather by CustomWeather, © 2016

See weather overviewHow to use our weather pages